| time (UTC) | temp F | wind direction | speed knots | gust knots | rain 1hr in | rain 24hr in | rain mn in | humidity % | barometer mb |
| 20260504120103 | 71 | 242 | 1.7 | 2.6 | 0.00 | 5.91 | 8.26 | 78 | 1012.8 |
| 20260504110558 | 71 | 130 | 3.5 | 5.2 | 0.00 | 5.91 | 8.26 | 79 | 1013.6 |
| 20260504050602 | 65 | 186 | 1.7 | 3.5 | 0.00 | 5.91 | 8.26 | 91 | 1013.8 |
| 20260504045602 | 65 | 168 | 2.6 | 7.8 | 0.00 | 5.91 | 8.26 | 91 | 1013.7 |
| 20260504045102 | 65 | 134 | 3.5 | 7.0 | 0.00 | 5.91 | 8.26 | 91 | 1013.6 |
| 20260504044602 | 65 | 193 | 0.9 | 1.7 | 0.00 | 5.91 | 8.26 | 91 | 1013.7 |
| 20260504044102 | 65 | 181 | 0.9 | 1.7 | 0.00 | 5.91 | 8.26 | 91 | 1013.7 |
| 20260504043602 | 65 | 161 | 1.7 | 2.6 | 0.00 | 5.91 | 8.26 | 91 | 1013.7 |
| 20260504043102 | 65 | 149 | 2.6 | 5.2 | 0.00 | 5.91 | 8.26 | 91 | 1013.5 |
| 20260504042602 | 65 | 213 | 0.0 | 1.7 | 0.00 | 5.91 | 8.26 | 90 | 1013.5 |
| 20260504042102 | 65 | 154 | 0.9 | 1.7 | 0.00 | 5.91 | 8.26 | 90 | 1013.7 |
| 20260504041602 | 65 | 122 | 0.9 | 1.7 | 0.00 | 5.91 | 8.26 | 90 | 1013.7 |
| 20260504041102 | 65 | 192 | 0.0 | 2.6 | 0.00 | 5.91 | 8.26 | 91 | 1013.7 |
| 20260504040602 | 65 | 213 | 1.7 | 3.5 | 0.00 | 5.91 | 8.26 | 91 | 1013.5 |
| 20260504035102 | 65 | 163 | 0.0 | 0.0 | 0.00 | 5.91 | 8.26 | 90 | 1013.7 |
| 20260504034601 | 65 | 237 | 1.7 | 2.6 | 0.00 | 5.91 | 8.26 | 90 | 1013.8 |
| 20260504034102 | 65 | 237 | 0.9 | 1.7 | 0.00 | 5.91 | 8.26 | 90 | 1013.9 |
| 20260504033602 | 65 | 235 | 0.0 | 1.7 | 0.00 | 5.91 | 8.26 | 90 | 1013.9 |
| 20260504033102 | 65 | 223 | 0.0 | 0.9 | 0.00 | 5.91 | 8.26 | 90 | 1013.8 |
| 20260504032602 | 65 | 239 | 0.0 | 0.9 | 0.00 | 5.91 | 8.26 | 90 | 1013.9 |
| 20260504032101 | 65 | 234 | 0.0 | 0.9 | 0.00 | 5.91 | 8.26 | 90 | 1014.0 |
| 20260504031601 | 65 | 234 | 0.0 | 0.9 | 0.00 | 5.91 | 8.26 | 90 | 1014.1 |
| 20260504031101 | 65 | 234 | 0.0 | 0.9 | 0.00 | 5.91 | 8.26 | 90 | 1014.1 |
| 20260504030601 | 65 | 235 | 0.9 | 1.7 | 0.00 | 5.91 | 8.26 | 90 | 1014.0 |
| 20260504025601 | 65 | 177 | 0.9 | 1.7 | 0.00 | 5.91 | 8.26 | 90 | 1014.2 |
| 20260504025101 | 65 | 224 | 1.7 | 2.6 | 0.00 | 5.91 | 8.26 | 90 | 1014.2 |
| 20260504024600 | 65 | 214 | 0.0 | 0.9 | 0.00 | 5.91 | 8.26 | 90 | 1014.2 |
| 20260504024100 | 65 | 144 | 0.9 | 1.7 | 0.00 | 5.91 | 8.26 | 90 | 1014.1 |
| 20260504023600 | 65 | 174 | 0.0 | 0.9 | 0.00 | 5.91 | 8.26 | 90 | 1014.3 |
| 20260504023100 | 65 | 219 | 2.6 | 4.3 | 0.00 | 5.91 | 8.26 | 90 | 1014.2 |
| 20260504022600 | 65 | 221 | 0.9 | 1.7 | 0.00 | 5.91 | 8.26 | 90 | 1014.2 |
| 20260504022100 | 65 | 215 | 1.7 | 4.3 | 0.00 | 5.91 | 8.26 | 90 | 1014.1 |
| 20260504021600 | 66 | 184 | 1.7 | 3.5 | 0.00 | 5.91 | 8.26 | 90 | 1014.2 |
| 20260504020600 | 66 | 139 | 2.6 | 3.5 | 0.00 | 5.91 | 8.26 | 91 | 1014.0 |
| 20260504020100 | 66 | 136 | 0.9 | 0.9 | 0.00 | 5.91 | 8.26 | 90 | 1014.3 |
| 20260504015600 | 66 | 199 | 1.7 | 3.5 | 0.00 | 5.91 | 8.26 | 90 | 1014.6 |
| 20260504015100 | 66 | 164 | 1.7 | 3.5 | 0.00 | 5.91 | 8.26 | 90 | 1014.3 |
| 20260504014600 | 66 | 222 | 1.7 | 3.5 | 0.00 | 5.91 | 8.26 | 90 | 1014.3 |
| 20260504014100 | 66 | 210 | 1.7 | 3.5 | 0.00 | 5.91 | 8.26 | 90 | 1014.4 |
| 20260504013600 | 66 | 177 | 1.7 | 2.6 | 0.00 | 5.91 | 8.26 | 89 | 1014.4 |
| 20260504013100 | 66 | 187 | 1.7 | 2.6 | 0.00 | 5.91 | 8.26 | 89 | 1014.5 |
| 20260504012600 | 66 | 199 | 1.7 | 2.6 | 0.00 | 5.91 | 8.26 | 89 | 1014.5 |
| 20260504012100 | 66 | 175 | 1.7 | 2.6 | 0.00 | 5.91 | 8.26 | 89 | 1014.5 |
| 20260504011600 | 66 | 240 | 0.0 | 0.9 | 0.00 | 5.91 | 8.26 | 89 | 1014.5 |
| 20260504011100 | 66 | 227 | 3.5 | 4.3 | 0.00 | 5.91 | 8.26 | 89 | 1014.5 |
| 20260504010600 | 66 | 176 | 0.9 | 1.7 | 0.00 | 5.91 | 8.26 | 89 | 1014.4 |
| 20260504010100 | 66 | 195 | 0.9 | 2.6 | 0.00 | 5.91 | 8.26 | 90 | 1014.6 |
| 20260504005600 | 66 | 246 | 2.6 | 3.5 | 0.00 | 5.91 | 8.26 | 90 | 1014.5 |
| 20260504005100 | 66 | 239 | 1.7 | 3.5 | 0.00 | 5.91 | 8.26 | 90 | 1014.5 |
| 20260504004600 | 66 | 237 | 0.9 | 2.6 | 0.00 | 5.91 | 8.26 | 90 | 1014.7 |
| 20260504004100 | 66 | 153 | 0.9 | 1.7 | 0.00 | 5.91 | 8.26 | 91 | 1014.8 |
| 20260504003559 | 66 | 202 | 2.6 | 3.5 | 0.00 | 5.91 | 8.26 | 91 | 1014.8 |
| 20260504003059 | 66 | 214 | 2.6 | 4.3 | 0.00 | 5.91 | 8.26 | 92 | 1014.8 |
| 20260504002559 | 66 | 152 | 1.7 | 3.5 | 0.00 | 5.91 | 8.26 | 92 | 1014.7 |
| 20260504002059 | 66 | 161 | 0.9 | 3.5 | 0.00 | 5.91 | 8.26 | 92 | 1014.6 |
| 20260504001559 | 66 | 127 | 0.9 | 1.7 | 0.00 | 5.91 | 8.26 | 92 | 1014.9 |
| 20260504001100 | 66 | 178 | 0.0 | 0.0 | 0.00 | 5.91 | 8.26 | 92 | 1014.7 |
| 20260504000059 | 66 | 162 | 0.9 | 2.6 | 0.00 | 5.91 | 8.26 | 92 | 1014.8 |
| 20260503235559 | 66 | 141 | 0.0 | 0.9 | 0.00 | 5.91 | 8.26 | 92 | 1014.8 |
| 20260503235059 | 66 | 139 | 0.0 | 0.9 | 0.00 | 5.91 | 8.26 | 92 | 1014.6 |
| 20260503234559 | 66 | 139 | 0.0 | 1.7 | 0.00 | 5.91 | 8.26 | 92 | 1014.9 |
| 20260503234059 | 66 | 131 | 0.0 | 0.9 | 0.00 | 5.91 | 8.26 | 92 | 1014.9 |
| 20260503233558 | 66 | 130 | 0.0 | 0.9 | 0.00 | 5.91 | 8.26 | 92 | 1015.0 |
| 20260503233058 | 66 | 112 | 0.0 | 0.9 | 0.00 | 5.91 | 8.26 | 92 | 1014.9 |
| 20260503232554 | 66 | 111 | 0.9 | 1.7 | 0.00 | 5.91 | 8.26 | 92 | 1015.1 |
| 20260503232054 | 66 | 111 | 0.0 | 0.0 | 0.00 | 5.91 | 8.26 | 92 | 1015.1 |
| 20260503231554 | 66 | 111 | 0.0 | 0.0 | 0.00 | 5.91 | 8.26 | 92 | 1015.0 |
| 20260503231054 | 66 | 111 | 0.0 | 0.9 | 0.00 | 5.91 | 8.26 | 92 | 1014.9 |
| 20260503230554 | 66 | 107 | 0.9 | 0.9 | 0.00 | 5.91 | 8.26 | 92 | 1015.1 |
| 20260503230054 | 66 | 115 | 0.9 | 0.9 | 0.00 | 5.91 | 8.26 | 92 | 1015.1 |
| 20260503225554 | 66 | 114 | 0.0 | 0.0 | 0.00 | 5.91 | 8.26 | 92 | 1015.1 |
| 20260503225054 | 66 | 111 | 0.0 | 0.0 | 0.00 | 5.91 | 8.26 | 92 | 1015.2 |
| 20260503224554 | 66 | 110 | 0.0 | 0.0 | 0.00 | 5.91 | 8.26 | 92 | 1015.2 |
| 20260503224054 | 66 | 113 | 0.0 | 0.0 | 0.00 | 5.91 | 8.26 | 92 | 1015.1 |
| 20260503223554 | 66 | 113 | 0.0 | 0.0 | 0.00 | 5.91 | 8.26 | 92 | 1015.3 |
| 20260503223054 | 66 | 113 | 0.0 | 0.0 | 0.00 | 5.91 | 8.26 | 92 | 1015.2 |
| 20260503222554 | 66 | 113 | 0.0 | 0.9 | 0.00 | 5.91 | 8.26 | 92 | 1015.1 |
| 20260503222054 | 65 | 113 | 0.0 | 0.0 | 0.00 | 5.91 | 8.26 | 92 | 1015.1 |
| 20260503221554 | 66 | 108 | 0.0 | 0.9 | 0.00 | 5.91 | 8.26 | 92 | 1015.3 |
| 20260503221054 | 66 | 117 | 0.0 | 0.9 | 0.00 | 5.91 | 8.26 | 92 | 1015.4 |
| 20260503220054 | 66 | 115 | 0.0 | 0.9 | 0.00 | 5.91 | 8.26 | 92 | 1015.5 |
| 20260503215554 | 66 | 121 | 0.0 | 0.0 | 0.00 | 5.91 | 8.26 | 92 | 1015.2 |
| 20260503215054 | 66 | 95 | 0.9 | 0.9 | 0.00 | 5.91 | 8.26 | 92 | 1015.4 |
| 20260503214554 | 66 | 95 | 0.0 | 0.0 | 0.00 | 5.91 | 8.26 | 92 | 1015.5 |
| 20260503214054 | 66 | 95 | 0.0 | 0.9 | 0.00 | 5.91 | 8.26 | 92 | 1015.5 |
| 20260503213554 | 65 | 106 | 0.9 | 2.6 | 0.00 | 5.91 | 8.26 | 92 | 1015.5 |
| 20260503213054 | 65 | 98 | 2.6 | 2.6 | 0.00 | 5.91 | 8.26 | 92 | 1015.6 |
| 20260503212554 | 65 | 92 | 1.7 | 2.6 | 0.00 | 5.91 | 8.26 | 92 | 1015.6 |
| 20260503212054 | 65 | 105 | 1.7 | 2.6 | 0.00 | 5.91 | 8.26 | 92 | 1015.5 |
| 20260503211554 | 65 | 102 | 1.7 | 2.6 | 0.00 | 5.91 | 8.26 | 92 | 1015.6 |
| 20260503211054 | 65 | 100 | 1.7 | 2.6 | 0.00 | 5.91 | 8.26 | 92 | 1015.6 |
| 20260503210554 | 65 | 113 | 1.7 | 2.6 | 0.00 | 5.91 | 8.26 | 92 | 1015.5 |
| 20260503210054 | 65 | 113 | 2.6 | 3.5 | 0.00 | 5.91 | 8.26 | 92 | 1015.6 |
| 20260503205554 | 65 | 92 | 1.7 | 2.6 | 0.00 | 5.91 | 8.26 | 92 | 1015.5 |
| 20260503205054 | 66 | 91 | 0.9 | 1.7 | 0.00 | 5.91 | 8.26 | 91 | 1015.6 |
| 20260503204554 | 66 | 100 | 0.9 | 1.7 | 0.00 | 5.91 | 8.26 | 91 | 1015.3 |
| 20260503204054 | 66 | 87 | 3.5 | 3.5 | 0.00 | 5.91 | 8.26 | 91 | 1015.4 |
| 20260503203554 | 65 | 104 | 2.6 | 3.5 | 0.00 | 5.91 | 8.26 | 91 | 1015.5 |
| 20260503203053 | 66 | 98 | 3.5 | 4.3 | 0.00 | 5.91 | 8.26 | 91 | 1015.3 |
| 20260503202553 | 66 | 109 | 2.6 | 4.3 | 0.00 | 5.91 | 8.26 | 90 | 1015.2 |
| 20260503202054 | 66 | 84 | 1.7 | 2.6 | 0.00 | 5.91 | 8.26 | 90 | 1015.2 |
| 20260503201053 | 66 | 112 | 1.7 | 3.5 | 0.00 | 5.91 | 8.26 | 89 | 1015.2 |
| 20260503200553 | 66 | 105 | 3.5 | 4.3 | 0.00 | 5.91 | 8.26 | 88 | 1015.1 |
| 20260503200053 | 66 | 91 | 3.5 | 4.3 | 0.00 | 5.91 | 8.26 | 88 | 1014.9 |
| 20260503195553 | 66 | 126 | 3.5 | 5.2 | 0.00 | 5.91 | 8.26 | 88 | 1014.8 |
| 20260503195053 | 66 | 87 | 2.6 | 3.5 | 0.00 | 5.91 | 8.26 | 89 | 1014.7 |
| 20260503194553 | 66 | 105 | 2.6 | 3.5 | 0.00 | 5.91 | 8.26 | 88 | 1014.7 |
| 20260503194053 | 66 | 82 | 2.6 | 4.3 | 0.00 | 5.91 | 8.26 | 89 | 1014.7 |
| 20260503193553 | 66 | 97 | 1.7 | 4.3 | 0.00 | 5.91 | 8.26 | 89 | 1014.6 |
| 20260503193053 | 66 | 95 | 1.7 | 2.6 | 0.00 | 5.91 | 8.26 | 89 | 1014.5 |
| 20260503192553 | 66 | 86 | 2.6 | 3.5 | 0.00 | 5.91 | 8.26 | 89 | 1014.3 |
| 20260503192053 | 66 | 81 | 0.9 | 1.7 | 0.00 | 5.91 | 8.26 | 89 | 1014.3 |
| 20260503191553 | 66 | 93 | 0.9 | 2.6 | 0.00 | 5.91 | 8.26 | 89 | 1014.1 |
| 20260503191053 | 66 | 87 | 2.6 | 3.5 | 0.00 | 5.91 | 8.26 | 88 | 1014.1 |
| 20260503190553 | 66 | 70 | 0.0 | 0.9 | 0.00 | 5.91 | 8.26 | 89 | 1013.9 |
| 20260503190053 | 66 | 88 | 2.6 | 3.5 | 0.00 | 5.91 | 8.26 | 88 | 1013.9 |
| 20260503185553 | 66 | 94 | 3.5 | 5.2 | 0.00 | 5.91 | 8.26 | 88 | 1013.8 |
| 20260503185053 | 66 | 89 | 0.9 | 0.9 | 0.00 | 5.91 | 8.26 | 88 | 1013.7 |
| 20260503184553 | 66 | 83 | 0.0 | 1.7 | 0.00 | 5.91 | 8.26 | 88 | 1013.7 |
| 20260503184053 | 66 | 77 | 2.6 | 3.5 | 0.00 | 5.91 | 8.26 | 88 | 1013.6 |
| 20260503183553 | 66 | 85 | 4.3 | 5.2 | 0.00 | 5.91 | 8.26 | 88 | 1013.7 |
| 20260503183053 | 66 | 95 | 4.3 | 5.2 | 0.00 | 5.91 | 8.26 | 87 | 1013.8 |
| 20260503182553 | 66 | 94 | 3.5 | 4.3 | 0.00 | 5.91 | 8.26 | 88 | 1013.6 |
| 20260503181256 | 66 | 94 | 2.6 | 3.5 | 0.00 | 5.91 | 8.26 | 87 | 1013.5 |
| 20260503180756 | 66 | 89 | 2.6 | 3.5 | 0.00 | 5.91 | 8.26 | 87 | 1013.5 |
| 20260503180256 | 66 | 65 | 0.9 | 0.9 | 0.00 | 5.91 | 8.26 | 87 | 1013.6 |
| 20260503175221 | 66 | 86 | 2.6 | 3.5 | 0.00 | 5.91 | 8.26 | 87 | 1013.6 |
| 20260503174721 | 66 | 103 | 1.7 | 2.6 | 0.00 | 5.91 | 8.26 | 87 | 1013.4 |
| 20260503174221 | 66 | 81 | 2.6 | 3.5 | 0.00 | 5.91 | 8.26 | 88 | 1013.4 |
| 20260503173721 | 66 | 100 | 1.7 | 2.6 | 0.00 | 5.91 | 8.26 | 88 | 1013.5 |
| 20260503173221 | 66 | 78 | 1.7 | 2.6 | 0.00 | 5.91 | 8.26 | 88 | 1013.5 |
| 20260503172721 | 66 | 98 | 1.7 | 2.6 | 0.00 | 5.91 | 8.26 | 88 | 1013.5 |
| 20260503171520 | 67 | 111 | 0.9 | 1.7 | 0.00 | 5.91 | 8.26 | 87 | 1013.1 |
| 20260503171020 | 67 | 95 | 2.6 | 5.2 | 0.00 | 5.91 | 8.26 | 87 | 1013.2 |
| 20260503170132 | 66 | 115 | 4.3 | 5.2 | 0.00 | 5.91 | 8.26 | 88 | 1013.1 |
| 20260503150527 | 68 | 80 | 2.6 | 3.5 | 0.00 | 5.91 | 8.26 | 84 | 1013.8 |
| 20260503131027 | 68 | 80 | 2.6 | 2.6 | 0.00 | 5.91 | 8.26 | 83 | 1014.7 |
| 20260503130527 | 68 | 89 | 4.3 | 7.0 | 0.00 | 5.91 | 8.26 | 83 | 1014.9 |